Weather History for Metropolis, IL

Change the Weather History Date:

Tuesday, February 21, 2012

  Actual Average (KPAH) Record (KPAH)
Temperature  
Mean Temperature 50 °F 41 °F  
Max Temperature 55 °F 51 °F 71 °F (1983)
Min Temperature 45 °F 31 °F 1 °F (1963)
Degree Days  
Heating Degree Days 15 24  
Month to date heating degree days 563  
Since 1 July heating degree days 3136  
Cooling Degree Days 0 0  
Month to date cooling degree days 0  
Year to date cooling degree days 0  
Moisture  
Dew Point 37 °F    
Average Humidity 62    
Maximum Humidity 78    
Minimum Humidity 45    
Precipitation  
Precipitation 0.02 in 0.14 in 2.07 in (1974)
Month to date precipitation 2.94  
Year to date precipitation 6.62  
Snow  
Snow 0.00 in 0.10 in 0.20 in (2008)
Month to date snowfall 2.6  
Since 1 July snowfall 7.9  
Snow Depth -    
Sea Level Pressure  
Sea Level Pressure 29.91 in    
Wind  
Wind Speed 14 mph (SSW)    
Max Wind Speed 24 mph    
Max Gust Speed 31 mph    
Visibility 10 miles    
Events Rain    
T = Trace of Precipitation, MM = Missing Value Source: NWS Daily Summary

Daily Weather History Graph

Daily Weather History Graph

Search for Another Location

Airport:

Trip Planner

Search our weather history database for the weather conditions in past years. The results will help you decide how hot, cold, wet, or windy it might be!

Date:

Astronomy

Feb. 21, 2012 Rise Set
Actual Time 6:37 AM CST 5:40 PM CST
Civil Twilight 6:10 AM CST 6:07 PM CST
Nautical Twilight 5:40 AM CST 6:37 PM CST
Astronomical Twilight 5:10 AM CST 7:07 PM CST
Moon 6:06 AM CST (2/21) 5:45 PM CST (2/21)
Length of Visible Light 11h 56m
Length of Day
11h 03m
Waning Crescent, 0% of the Moon is Illuminated
Feb 21
Waning Crescent
Feb 21
New
Feb 29
First Quarter
Mar 8
Full
Mar 14
Last Quarter

Hourly Weather History & Observations

Time (CST) Temp. Windchill Dew Point Humidity Pressure Visibility Wind Dir Wind Speed Gust Speed Precip Events Conditions
12:15 AM 49.3 °F - 28.4 °F 45% 29.89 in 10.0 mi SSE 11.5 mph 16.1 mph N/A   Overcast
12:35 AM 49.6 °F - 29.1 °F 45% 29.88 in 10.0 mi South 10.4 mph 18.4 mph N/A   Overcast
12:55 AM 50.2 °F - 29.7 °F 45% 29.87 in 10.0 mi South 12.7 mph 20.7 mph N/A   Overcast
1:15 AM 47.7 °F - 35.8 °F 63% 29.90 in 10.0 mi South 15.0 mph 21.9 mph 0.01 in Rain Rain
1:35 AM 45.9 °F 40.0 °F 36.9 °F 71% 29.87 in 10.0 mi South 12.7 mph 17.3 mph 0.02 in Rain Rain
1:55 AM 47.3 °F - 37.6 °F 69% 29.80 in 10.0 mi SSE 18.4 mph 27.6 mph 0.02 in Rain Light Rain
2:15 AM 47.7 °F - 38.3 °F 70% 29.80 in 10.0 mi South 16.1 mph 31.1 mph N/A   Mostly Cloudy
2:35 AM 47.7 °F - 38.3 °F 70% 29.80 in 10.0 mi South 17.3 mph 26.5 mph N/A   Scattered Clouds
2:55 AM 47.3 °F - 38.7 °F 72% 29.79 in 10.0 mi South 19.6 mph 28.8 mph N/A   Clear
3:15 AM 47.3 °F - 39.2 °F 73% 29.81 in 10.0 mi South 16.1 mph 27.6 mph N/A   Clear
3:35 AM 47.1 °F - 39.2 °F 74% 29.80 in 10.0 mi SSW 16.1 mph 29.9 mph N/A   Scattered Clouds
3:55 AM 46.8 °F - 39.7 °F 77% 29.81 in 10.0 mi South 13.8 mph 27.6 mph N/A   Scattered Clouds
4:15 AM 46.9 °F - 40.3 °F 78% 29.82 in 10.0 mi SSW 17.3 mph 23.0 mph N/A   Scattered Clouds
4:35 AM 47.5 °F - 41.0 °F 78% 29.82 in 10.0 mi SSW 15.0 mph 21.9 mph N/A   Mostly Cloudy
4:55 AM 47.8 °F - 41.4 °F 78% 29.83 in 10.0 mi SSW 15.0 mph 21.9 mph N/A   Overcast
5:15 AM 48.7 °F - 41.2 °F 75% 29.85 in 10.0 mi SW 24.2 mph 28.8 mph N/A   Overcast
5:35 AM 48.7 °F - 39.9 °F 72% 29.86 in 10.0 mi SW 18.4 mph 27.6 mph N/A   Overcast
6:15 AM 47.7 °F - 37.8 °F 69% 29.88 in 10.0 mi SW 15.0 mph 26.5 mph N/A   Overcast
6:35 AM 46.8 °F - 37.6 °F 70% 29.88 in 10.0 mi SW 11.5 mph 20.7 mph N/A   Scattered Clouds
6:55 AM 46.2 °F 40.8 °F 36.1 °F 68% 29.88 in 10.0 mi SW 11.5 mph - N/A   Clear
7:15 AM 46.2 °F 40.5 °F 35.1 °F 65% 29.90 in 10.0 mi SW 12.7 mph 18.4 mph N/A   Clear
7:35 AM 46.8 °F - 35.2 °F 64% 29.92 in 10.0 mi SW 12.7 mph 19.6 mph N/A   Clear
7:55 AM 47.5 °F - 35.8 °F 64% 29.93 in 10.0 mi SW 13.8 mph 18.4 mph N/A   Clear
8:15 AM 48.2 °F - 35.8 °F 62% 29.93 in 10.0 mi SW 17.3 mph 23.0 mph N/A   Scattered Clouds
8:35 AM 47.7 °F - 35.4 °F 63% 29.94 in 10.0 mi SW 17.3 mph 23.0 mph N/A   Mostly Cloudy
8:55 AM 47.8 °F - 35.8 °F 63% 29.95 in 10.0 mi SW 18.4 mph 25.3 mph N/A   Overcast
9:15 AM 48.2 °F - 36.5 °F 64% 29.95 in 10.0 mi SW 16.1 mph 24.2 mph N/A   Overcast
9:35 AM 48.4 °F - 36.9 °F 64% 29.95 in 10.0 mi SW 16.1 mph - N/A   Overcast
9:55 AM 48.4 °F - 36.5 °F 64% 29.96 in 10.0 mi SW 16.1 mph 23.0 mph N/A   Overcast
10:15 AM 49.1 °F - 36.7 °F 62% 29.96 in 10.0 mi SW 15.0 mph 23.0 mph N/A   Overcast
10:35 AM 49.6 °F - 36.5 °F 61% 29.96 in 10.0 mi SW 18.4 mph 26.5 mph N/A   Overcast
10:55 AM 50.0 °F - 36.9 °F 61% 29.97 in 10.0 mi SW 16.1 mph 24.2 mph N/A   Overcast
11:15 AM 49.3 °F - 36.3 °F 61% 29.99 in 10.0 mi SW 18.4 mph 21.9 mph N/A   Overcast
11:35 AM 49.1 °F - 36.5 °F 62% 29.98 in 10.0 mi SW 16.1 mph 23.0 mph N/A   Overcast
11:55 AM 49.1 °F - 36.7 °F 62% 29.97 in 10.0 mi SW 17.3 mph 23.0 mph N/A   Overcast
12:15 PM 49.6 °F - 36.7 °F 61% 29.96 in 10.0 mi SW 18.4 mph 27.6 mph N/A   Overcast
12:35 PM 49.3 °F - 36.3 °F 61% 29.96 in 10.0 mi SW 17.3 mph 25.3 mph N/A   Overcast
12:55 PM 50.4 °F - 36.7 °F 59% 29.95 in 10.0 mi WSW 12.7 mph 21.9 mph N/A   Overcast
1:15 PM 51.6 °F - 37.2 °F 58% 29.94 in 10.0 mi SW 15.0 mph 20.7 mph N/A   Overcast
1:35 PM 52.7 °F - 37.6 °F 56% 29.94 in 10.0 mi SW 15.0 mph 21.9 mph N/A   Overcast
1:55 PM 51.8 °F - 37.4 °F 58% 29.94 in 10.0 mi SW 16.1 mph 24.2 mph N/A   Overcast
2:15 PM 52.9 °F - 37.8 °F 56% 29.93 in 10.0 mi WSW 12.7 mph - N/A   Overcast
2:35 PM 52.7 °F - 37.8 °F 57% 29.92 in 10.0 mi WSW 15.0 mph 25.3 mph N/A   Overcast
2:55 PM 53.4 °F - 38.3 °F 57% 29.92 in 10.0 mi SW 12.7 mph 19.6 mph N/A   Overcast
3:15 PM 53.4 °F - 38.3 °F 57% 29.92 in 10.0 mi SW 13.8 mph 20.7 mph N/A   Overcast
3:35 PM 54.5 °F - 37.8 °F 53% 29.92 in 10.0 mi SW 17.3 mph 21.9 mph N/A   Mostly Cloudy
3:55 PM 55.0 °F - 37.6 °F 52% 29.92 in 10.0 mi WSW 10.4 mph - N/A   Scattered Clouds
4:15 PM 55.0 °F - 37.6 °F 52% 29.92 in 10.0 mi WSW 10.4 mph 17.3 mph N/A   Scattered Clouds
4:35 PM 54.9 °F - 37.2 °F 51% 29.92 in 10.0 mi WSW 12.7 mph 19.6 mph N/A   Clear
4:55 PM 53.6 °F - 36.9 °F 53% 29.93 in 10.0 mi WSW 12.7 mph - N/A   Clear
5:15 PM 53.8 °F - 36.9 °F 53% 29.93 in 10.0 mi SW 13.8 mph 20.7 mph N/A   Clear
5:55 PM 52.7 °F - 36.7 °F 55% 29.93 in 10.0 mi SSW 9.2 mph - N/A   Clear
6:15 PM 50.9 °F - 36.5 °F 58% 29.93 in 10.0 mi SSW 5.8 mph - N/A   Clear
6:35 PM 50.9 °F - 35.8 °F 56% 29.92 in 10.0 mi South 3.5 mph - N/A   Clear
6:55 PM 50.0 °F - 35.6 °F 58% 29.93 in 10.0 mi South 4.6 mph - N/A   Clear
7:15 PM 49.5 °F - 36.1 °F 60% 29.92 in 10.0 mi SSE 4.6 mph - N/A   Clear
7:35 PM 48.9 °F - 36.0 °F 61% 29.92 in 10.0 mi South 4.6 mph - N/A   Clear
8:15 PM 48.4 °F - 35.8 °F 62% 29.92 in 10.0 mi South 4.6 mph - N/A   Clear
8:35 PM 48.2 °F - 35.6 °F 62% 29.91 in 10.0 mi South 5.8 mph - N/A   Clear
8:55 PM 48.2 °F - 35.6 °F 62% 29.92 in 10.0 mi South 5.8 mph - N/A   Clear
9:15 PM 47.3 °F - 35.6 °F 64% 29.91 in 10.0 mi South 5.8 mph - N/A   Clear
9:35 PM 47.1 °F - 35.8 °F 65% 29.91 in 10.0 mi South 4.6 mph - N/A   Clear
9:55 PM 47.7 °F - 35.6 °F 63% 29.91 in 10.0 mi Calm Calm - N/A   Clear
10:15 PM 47.5 °F - 35.6 °F 63% 29.91 in 10.0 mi SSW 5.8 mph - N/A   Clear
10:35 PM 48.4 °F - 35.8 °F 62% 29.91 in 10.0 mi South 4.6 mph - N/A   Clear
10:55 PM 48.4 °F - 35.6 °F 61% 29.90 in 10.0 mi South 4.6 mph - N/A   Clear
11:15 PM 47.7 °F - 35.1 °F 62% 29.89 in 10.0 mi South 5.8 mph - N/A   Clear
11:35 PM 46.8 °F - 34.7 °F 63% 29.88 in 10.0 mi South 4.6 mph - N/A   Clear
11:55 PM 46.4 °F 44.3 °F 34.5 °F 63% 29.87 in 10.0 mi South 4.6 mph - N/A   Clear